Year,Month,Day,Hour,Minute,Value (Times are PST for temperature in C)
2017,08,23,00,00,19.50
2017,08,23,00,01,19.40
2017,08,23,00,02,19.40
2017,08,23,00,03,19.40
2017,08,23,00,04,19.40
2017,08,23,00,05,19.40
2017,08,23,00,06,19.40
2017,08,23,00,07,19.40
2017,08,23,00,08,19.30
2017,08,23,00,09,19.30
2017,08,23,00,10,19.30
2017,08,23,00,11,19.30
2017,08,23,00,12,19.30
2017,08,23,00,13,19.30
2017,08,23,00,14,19.30
2017,08,23,00,15,19.30
2017,08,23,00,16,19.20
2017,08,23,00,17,19.20
2017,08,23,00,18,19.20
2017,08,23,00,19,19.20
2017,08,23,00,20,19.20
2017,08,23,00,21,19.20
2017,08,23,00,22,19.20
2017,08,23,00,23,19.10
2017,08,23,00,24,19.10
2017,08,23,00,25,19.10
2017,08,23,00,26,19.10
2017,08,23,00,27,19.10
2017,08,23,00,28,19.10
2017,08,23,00,29,19.10
2017,08,23,00,30,19.00
2017,08,23,00,31,19.00
2017,08,23,00,32,19.00
2017,08,23,00,33,19.00
2017,08,23,00,34,19.00
2017,08,23,00,35,18.90
2017,08,23,00,36,18.90
2017,08,23,00,37,18.90
2017,08,23,00,38,18.90
2017,08,23,00,39,18.90
2017,08,23,00,40,18.90
2017,08,23,00,41,18.90
2017,08,23,00,42,18.90
2017,08,23,00,43,18.90
2017,08,23,00,44,18.90
2017,08,23,00,45,18.90
2017,08,23,00,46,18.90
2017,08,23,00,47,18.90
2017,08,23,00,48,18.90
2017,08,23,00,49,18.90
2017,08,23,00,50,18.90
2017,08,23,00,51,18.90
2017,08,23,00,52,18.90
2017,08,23,00,53,18.90
2017,08,23,00,54,18.80
2017,08,23,00,55,18.80
2017,08,23,00,56,18.80
2017,08,23,00,57,18.80
2017,08,23,00,58,18.80
2017,08,23,00,59,18.80
2017,08,23,01,00,18.80
2017,08,23,01,01,18.80
2017,08,23,01,02,18.70
2017,08,23,01,03,18.70
2017,08,23,01,04,18.70
2017,08,23,01,05,18.70
2017,08,23,01,06,18.70
2017,08,23,01,07,18.70
2017,08,23,01,08,18.70
2017,08,23,01,09,18.70
2017,08,23,01,10,18.70
2017,08,23,01,11,18.60
2017,08,23,01,12,18.60
2017,08,23,01,13,18.60
2017,08,23,01,14,18.60
2017,08,23,01,15,18.60
2017,08,23,01,16,18.60
2017,08,23,01,17,18.50
2017,08,23,01,18,18.50
2017,08,23,01,19,18.50
2017,08,23,01,20,18.40
2017,08,23,01,21,18.40
2017,08,23,01,22,18.40
2017,08,23,01,23,18.40
2017,08,23,01,24,18.40
2017,08,23,01,25,18.30
2017,08,23,01,26,18.30
2017,08,23,01,27,18.30
2017,08,23,01,28,18.30
2017,08,23,01,29,18.30
2017,08,23,01,30,18.30
2017,08,23,01,31,18.30
2017,08,23,01,32,18.20
2017,08,23,01,33,18.20
2017,08,23,01,34,18.20
2017,08,23,01,35,18.20
2017,08,23,01,36,18.20
2017,08,23,01,37,18.20
2017,08,23,01,38,18.20
2017,08,23,01,39,18.10
2017,08,23,01,40,18.10
2017,08,23,01,41,18.10
2017,08,23,01,42,18.10
2017,08,23,01,43,18.10
2017,08,23,01,44,18.10
2017,08,23,01,45,18.10
2017,08,23,01,46,18.00
2017,08,23,01,47,18.00
2017,08,23,01,48,18.00
2017,08,23,01,49,18.00
2017,08,23,01,50,18.00
2017,08,23,01,51,18.00
2017,08,23,01,52,18.00
2017,08,23,01,53,18.00
2017,08,23,01,54,17.90
2017,08,23,01,55,17.90
2017,08,23,01,56,17.90
2017,08,23,01,57,17.90
2017,08,23,01,58,17.90
2017,08,23,01,59,17.90
2017,08,23,02,00,17.90
2017,08,23,02,01,17.90
2017,08,23,02,02,17.90
2017,08,23,02,03,17.90
2017,08,23,02,04,17.90
2017,08,23,02,05,17.90
2017,08,23,02,06,17.90
2017,08,23,02,07,17.90
2017,08,23,02,08,17.90
2017,08,23,02,09,17.80
2017,08,23,02,10,17.80
2017,08,23,02,11,17.80
2017,08,23,02,12,17.80
2017,08,23,02,13,17.80
2017,08,23,02,14,17.80
2017,08,23,02,15,17.80
2017,08,23,02,16,17.80
2017,08,23,02,17,17.80
2017,08,23,02,18,17.80
2017,08,23,02,19,17.80
2017,08,23,02,20,17.80
2017,08,23,02,21,17.80
2017,08,23,02,22,17.80
2017,08,23,02,23,17.80
2017,08,23,02,24,17.80
2017,08,23,02,25,17.80
2017,08,23,02,26,17.80
2017,08,23,02,27,17.80
2017,08,23,02,28,17.80
2017,08,23,02,29,17.70
2017,08,23,02,30,17.70
2017,08,23,02,31,17.70
2017,08,23,02,32,17.60
2017,08,23,02,33,17.60
2017,08,23,02,34,17.60
2017,08,23,02,35,17.50
2017,08,23,02,36,17.50
2017,08,23,02,37,17.50
2017,08,23,02,38,17.50
2017,08,23,02,39,17.40
2017,08,23,02,40,17.40
2017,08,23,02,41,17.40
2017,08,23,02,42,17.40
2017,08,23,02,43,17.40
2017,08,23,02,44,17.40
2017,08,23,02,45,17.40
2017,08,23,02,46,17.30
2017,08,23,02,47,17.30
2017,08,23,02,48,17.30
2017,08,23,02,49,17.30
2017,08,23,02,50,17.30
2017,08,23,02,51,17.30
2017,08,23,02,52,17.30
2017,08,23,02,53,17.20
2017,08,23,02,54,17.20
2017,08,23,02,55,17.20
2017,08,23,02,56,17.20
2017,08,23,02,57,17.10
2017,08,23,02,58,17.10
2017,08,23,02,59,17.10
2017,08,23,03,00,17.10
2017,08,23,03,01,17.00
2017,08,23,03,02,17.00
2017,08,23,03,03,17.00
2017,08,23,03,04,16.90
2017,08,23,03,05,16.90
2017,08,23,03,06,16.90
2017,08,23,03,07,16.90
2017,08,23,03,08,16.90
2017,08,23,03,09,16.90
2017,08,23,03,10,16.90
2017,08,23,03,11,16.90
2017,08,23,03,12,16.90
2017,08,23,03,13,16.90
2017,08,23,03,14,16.90
2017,08,23,03,15,16.80
2017,08,23,03,16,16.80
2017,08,23,03,17,16.80
2017,08,23,03,18,16.80
2017,08,23,03,19,16.80
2017,08,23,03,20,16.80
2017,08,23,03,21,16.80
2017,08,23,03,22,16.90
2017,08,23,03,23,16.90
2017,08,23,03,24,16.90
2017,08,23,03,25,16.90
2017,08,23,03,26,16.90
2017,08,23,03,27,16.90
2017,08,23,03,28,16.80
2017,08,23,03,29,16.80
2017,08,23,03,30,16.90
2017,08,23,03,31,16.90
2017,08,23,03,32,16.90
2017,08,23,03,33,16.90
2017,08,23,03,34,16.90
2017,08,23,03,35,16.90
2017,08,23,03,36,16.90
2017,08,23,03,37,16.90
2017,08,23,03,38,16.90
2017,08,23,03,39,16.90
2017,08,23,03,40,16.90
2017,08,23,03,41,16.90
2017,08,23,03,42,16.90
2017,08,23,03,43,16.90
2017,08,23,03,44,16.90
2017,08,23,03,45,16.90
2017,08,23,03,46,16.90
2017,08,23,03,47,16.90
2017,08,23,03,48,16.90
2017,08,23,03,49,16.90
2017,08,23,03,50,16.90
2017,08,23,03,51,16.90
2017,08,23,03,52,16.90
2017,08,23,03,53,16.90
2017,08,23,03,54,16.90
2017,08,23,03,55,16.90
2017,08,23,03,56,16.90
2017,08,23,03,57,16.90
2017,08,23,03,58,16.90
2017,08,23,03,59,16.90
2017,08,23,04,00,16.90
2017,08,23,04,01,16.90
2017,08,23,04,02,16.90
2017,08,23,04,03,16.90
2017,08,23,04,04,17.00
2017,08,23,04,05,17.00
2017,08,23,04,06,17.00
2017,08,23,04,07,17.00
2017,08,23,04,08,17.00
2017,08,23,04,09,17.00
2017,08,23,04,10,17.10
2017,08,23,04,11,17.00
2017,08,23,04,12,17.10
2017,08,23,04,13,17.10
2017,08,23,04,14,17.10
2017,08,23,04,15,17.10
2017,08,23,04,16,17.10
2017,08,23,04,17,17.10
2017,08,23,04,18,17.10
2017,08,23,04,19,17.10
2017,08,23,04,20,17.10
2017,08,23,04,21,17.10
2017,08,23,04,22,17.10
2017,08,23,04,23,17.10
2017,08,23,04,24,17.10
2017,08,23,04,25,17.10
2017,08,23,04,26,17.10
2017,08,23,04,27,17.10
2017,08,23,04,28,17.10
2017,08,23,04,29,17.10
2017,08,23,04,30,17.10
2017,08,23,04,31,17.10
2017,08,23,04,32,17.10
2017,08,23,04,33,17.20
2017,08,23,04,34,17.20
2017,08,23,04,35,17.20
2017,08,23,04,36,17.20
2017,08,23,04,37,17.20
2017,08,23,04,38,17.30
2017,08,23,04,39,17.30
2017,08,23,04,40,17.30
2017,08,23,04,41,17.30
2017,08,23,04,42,17.40
2017,08,23,04,43,17.40
2017,08,23,04,44,17.50
2017,08,23,04,45,17.50
2017,08,23,04,46,17.60
2017,08,23,04,47,17.60
2017,08,23,04,48,17.60
2017,08,23,04,49,17.60
2017,08,23,04,50,17.70
2017,08,23,04,51,17.70
2017,08,23,04,52,17.70
2017,08,23,04,53,17.70
2017,08,23,04,54,17.70
2017,08,23,04,55,17.70
2017,08,23,04,56,17.70
2017,08,23,04,57,17.70
2017,08,23,04,58,17.70
2017,08,23,04,59,17.70
2017,08,23,05,00,17.70
2017,08,23,05,01,17.70
2017,08,23,05,02,17.70
2017,08,23,05,03,17.70
2017,08,23,05,04,17.70
2017,08,23,05,05,17.70
2017,08,23,05,06,17.70
2017,08,23,05,07,17.70
2017,08,23,05,08,17.60
2017,08,23,05,09,17.60
2017,08,23,05,10,17.60
2017,08,23,05,11,17.60
2017,08,23,05,12,17.60
2017,08,23,05,13,17.60
2017,08,23,05,14,17.60
2017,08,23,05,15,17.60
2017,08,23,05,16,17.60
2017,08,23,05,17,17.60
2017,08,23,05,18,17.60
2017,08,23,05,19,17.70
2017,08,23,05,20,17.70
2017,08,23,05,21,17.70
2017,08,23,05,22,17.70
2017,08,23,05,23,17.70
2017,08,23,05,24,17.70
2017,08,23,05,25,17.70
2017,08,23,05,26,17.70
2017,08,23,05,27,17.70
2017,08,23,05,28,17.70
2017,08,23,05,29,17.70
2017,08,23,05,30,17.70
2017,08,23,05,31,17.80
2017,08,23,05,32,17.80
2017,08,23,05,33,17.80
2017,08,23,05,34,17.80
2017,08,23,05,35,17.90
2017,08,23,05,36,17.90
2017,08,23,05,37,17.90
2017,08,23,05,38,17.90
2017,08,23,05,39,18.00
2017,08,23,05,40,18.00
2017,08,23,05,41,18.00
2017,08,23,05,42,18.00
2017,08,23,05,43,18.00
2017,08,23,05,44,18.00
2017,08,23,05,45,18.10
2017,08,23,05,46,18.10
2017,08,23,05,47,18.10
2017,08,23,05,48,18.10
2017,08,23,05,49,18.10
2017,08,23,05,50,18.10
2017,08,23,05,51,18.10
2017,08,23,05,52,18.10
2017,08,23,05,53,18.10
2017,08,23,05,54,18.10
2017,08,23,05,55,18.10
2017,08,23,05,56,18.00
2017,08,23,05,57,18.00
2017,08,23,05,58,17.90
2017,08,23,05,59,17.90
2017,08,23,06,00,17.80
2017,08,23,06,01,17.80
2017,08,23,06,02,17.80
2017,08,23,06,03,17.70
2017,08,23,06,04,17.70
2017,08,23,06,05,17.70
2017,08,23,06,06,17.70
2017,08,23,06,07,17.70
2017,08,23,06,08,17.70
2017,08,23,06,09,17.70
2017,08,23,06,10,17.70
2017,08,23,06,11,17.60
2017,08,23,06,12,17.60
2017,08,23,06,13,17.60
2017,08,23,06,14,17.60
2017,08,23,06,15,17.60
2017,08,23,06,16,17.60
2017,08,23,06,17,17.60
2017,08,23,06,18,17.60
2017,08,23,06,19,17.60
2017,08,23,06,20,17.60
2017,08,23,06,21,17.60
2017,08,23,06,22,17.60
2017,08,23,06,23,17.60
2017,08,23,06,24,17.60
2017,08,23,06,25,17.60
2017,08,23,06,26,17.60
2017,08,23,06,27,17.60
2017,08,23,06,28,17.60
2017,08,23,06,29,17.60
2017,08,23,06,30,17.70
2017,08,23,06,31,17.70
2017,08,23,06,32,17.70
2017,08,23,06,33,17.70
2017,08,23,06,34,17.80
2017,08,23,06,35,17.80
2017,08,23,06,36,17.80
2017,08,23,06,37,17.80
2017,08,23,06,38,17.80
2017,08,23,06,39,17.80
2017,08,23,06,40,17.80
2017,08,23,06,41,17.90
2017,08,23,06,42,17.90
2017,08,23,06,43,17.90
2017,08,23,06,44,17.90
2017,08,23,06,45,18.00
2017,08,23,06,46,18.00
2017,08,23,06,47,18.00
2017,08,23,06,48,18.00
2017,08,23,06,49,18.00
2017,08,23,06,50,18.00
2017,08,23,06,51,18.00
2017,08,23,06,52,18.00
2017,08,23,06,53,18.00
2017,08,23,06,54,18.00
2017,08,23,06,55,18.00
2017,08,23,06,56,18.00
2017,08,23,06,57,18.00
2017,08,23,06,58,18.00
2017,08,23,06,59,18.00
2017,08,23,07,00,17.90
2017,08,23,07,01,18.00
2017,08,23,07,02,17.90
2017,08,23,07,03,17.90
2017,08,23,07,04,17.90
2017,08,23,07,05,18.00
2017,08,23,07,06,18.00
2017,08,23,07,07,18.00
2017,08,23,07,08,18.00
2017,08,23,07,09,18.00
2017,08,23,07,10,18.00
2017,08,23,07,11,18.10
2017,08,23,07,12,18.10
2017,08,23,07,13,18.10
2017,08,23,07,14,18.10
2017,08,23,07,15,18.20
2017,08,23,07,16,18.20
2017,08,23,07,17,18.20
2017,08,23,07,18,18.20
2017,08,23,07,19,18.20
2017,08,23,07,20,18.20
2017,08,23,07,21,18.30
2017,08,23,07,22,18.30
2017,08,23,07,23,18.30
2017,08,23,07,24,18.30
2017,08,23,07,25,18.30
2017,08,23,07,26,18.30
2017,08,23,07,27,18.30
2017,08,23,07,28,18.30
2017,08,23,07,29,18.30
2017,08,23,07,30,18.30
2017,08,23,07,31,18.30
2017,08,23,07,32,18.40
2017,08,23,07,33,18.40
2017,08,23,07,34,18.40
2017,08,23,07,35,18.40
2017,08,23,07,36,18.40
2017,08,23,07,37,18.40
2017,08,23,07,38,18.40
2017,08,23,07,39,18.40
2017,08,23,07,40,18.40
2017,08,23,07,41,18.50
2017,08,23,07,42,18.50
2017,08,23,07,43,18.50
2017,08,23,07,44,18.50
2017,08,23,07,45,18.50
2017,08,23,07,46,18.50
2017,08,23,07,47,18.60
2017,08,23,07,48,18.60
2017,08,23,07,49,18.60
2017,08,23,07,50,18.60
2017,08,23,07,51,18.60
2017,08,23,07,52,18.60
2017,08,23,07,53,18.60
2017,08,23,07,54,18.60
2017,08,23,07,55,18.70
2017,08,23,07,56,18.70
2017,08,23,07,57,18.70
2017,08,23,07,58,18.70
2017,08,23,07,59,18.70
2017,08,23,08,00,18.70
2017,08,23,08,01,18.70
2017,08,23,08,02,18.70
2017,08,23,08,03,18.80
2017,08,23,08,04,18.80
2017,08,23,08,05,18.80
2017,08,23,08,06,18.80
2017,08,23,08,07,18.80
2017,08,23,08,08,18.70
2017,08,23,08,09,18.70
2017,08,23,08,10,18.70
2017,08,23,08,11,18.70
2017,08,23,08,12,18.80
2017,08,23,08,13,18.80
2017,08,23,08,14,18.80
2017,08,23,08,15,18.80
2017,08,23,08,16,18.80
2017,08,23,08,17,18.70
2017,08,23,08,18,18.70
2017,08,23,08,19,18.70
2017,08,23,08,20,18.70
2017,08,23,08,21,18.70
2017,08,23,08,22,18.70
2017,08,23,08,23,18.70
2017,08,23,08,24,18.70
2017,08,23,08,25,18.70
2017,08,23,08,26,18.70
2017,08,23,08,27,18.70
2017,08,23,08,28,18.70
2017,08,23,08,29,18.80
2017,08,23,08,30,18.80
2017,08,23,08,31,18.80
2017,08,23,08,32,18.80
2017,08,23,08,33,18.80
2017,08,23,08,34,18.80
2017,08,23,08,35,18.80
2017,08,23,08,36,18.80
2017,08,23,08,37,18.80
2017,08,23,08,38,18.80
2017,08,23,08,39,18.80
2017,08,23,08,40,18.80
2017,08,23,08,41,18.80
2017,08,23,08,42,18.80
2017,08,23,08,43,18.80
2017,08,23,08,44,18.80
2017,08,23,08,45,18.80
2017,08,23,08,46,18.80
2017,08,23,08,47,18.80
2017,08,23,08,48,18.90
2017,08,23,08,49,18.90
2017,08,23,08,50,18.90
2017,08,23,08,51,18.90
2017,08,23,08,52,18.90
2017,08,23,08,53,18.90
2017,08,23,08,54,18.90
2017,08,23,08,55,18.90
2017,08,23,08,56,18.90
2017,08,23,08,57,18.90
2017,08,23,08,58,18.90
2017,08,23,08,59,18.90
2017,08,23,09,00,18.90
2017,08,23,09,01,18.90
2017,08,23,09,02,18.90
2017,08,23,09,03,18.90
2017,08,23,09,04,18.90
2017,08,23,09,05,18.90
2017,08,23,09,06,18.90
2017,08,23,09,07,18.90
2017,08,23,09,08,18.90
2017,08,23,09,09,19.00
2017,08,23,09,10,19.00
2017,08,23,09,11,19.00
2017,08,23,09,12,19.10
2017,08,23,09,13,19.10
2017,08,23,09,14,19.10
2017,08,23,09,15,19.10
2017,08,23,09,16,19.10
2017,08,23,09,17,19.10
2017,08,23,09,18,19.10
2017,08,23,09,19,19.10
2017,08,23,09,20,19.10
2017,08,23,09,21,19.10
2017,08,23,09,22,19.20
2017,08,23,09,23,19.20
2017,08,23,09,24,19.20
2017,08,23,09,25,19.20
2017,08,23,09,26,19.20
2017,08,23,09,27,19.20
2017,08,23,09,28,19.20
2017,08,23,09,29,19.20
2017,08,23,09,30,19.20
2017,08,23,09,31,19.20
2017,08,23,09,32,19.20
2017,08,23,09,33,19.20
2017,08,23,09,34,19.20
2017,08,23,09,35,19.20
2017,08,23,09,36,19.20
2017,08,23,09,37,19.20
2017,08,23,09,38,19.20
2017,08,23,09,39,19.20
2017,08,23,09,40,19.20
2017,08,23,09,41,19.20
2017,08,23,09,42,19.20
2017,08,23,09,43,19.20
2017,08,23,09,44,19.30
2017,08,23,09,45,19.30
2017,08,23,09,46,19.30
2017,08,23,09,47,19.30
2017,08,23,09,48,19.30
2017,08,23,09,49,19.30
2017,08,23,09,50,19.30
2017,08,23,09,51,19.30
2017,08,23,09,52,19.30
2017,08,23,09,53,19.40
2017,08,23,09,54,19.40
2017,08,23,09,55,19.40
2017,08,23,09,56,19.40
2017,08,23,09,57,19.50
2017,08,23,09,58,19.50
2017,08,23,09,59,19.60
2017,08,23,10,00,19.60
2017,08,23,10,01,19.60
2017,08,23,10,02,19.70
2017,08,23,10,03,19.80
2017,08,23,10,04,19.80
2017,08,23,10,05,19.90
2017,08,23,10,06,19.90
2017,08,23,10,07,19.90
2017,08,23,10,08,20.00
2017,08,23,10,09,20.00
2017,08,23,10,10,20.10
2017,08,23,10,11,20.10
2017,08,23,10,12,20.10
2017,08,23,10,13,20.10
2017,08,23,10,14,20.10
2017,08,23,10,15,20.10
2017,08,23,10,16,20.10
2017,08,23,10,17,20.10
2017,08,23,10,18,20.10
2017,08,23,10,19,20.10
2017,08,23,10,20,20.20
2017,08,23,10,21,20.10
2017,08,23,10,22,20.10
2017,08,23,10,23,20.10
2017,08,23,10,24,20.10
2017,08,23,10,25,20.10
2017,08,23,10,26,20.00
2017,08,23,10,27,20.00
2017,08,23,10,28,19.90
2017,08,23,10,29,19.90
2017,08,23,10,30,19.80
2017,08,23,10,31,19.80
2017,08,23,10,32,19.80
2017,08,23,10,33,19.70
2017,08,23,10,34,19.70
2017,08,23,10,35,19.70
2017,08,23,10,36,19.70
2017,08,23,10,37,19.70
2017,08,23,10,38,19.70
2017,08,23,10,39,19.60
2017,08,23,10,40,19.60
2017,08,23,10,41,19.60
2017,08,23,10,42,19.60
2017,08,23,10,43,19.60
2017,08,23,10,44,19.60
2017,08,23,10,45,19.60
2017,08,23,10,46,19.60
2017,08,23,10,47,19.60
2017,08,23,10,48,19.70
2017,08,23,10,49,19.70
2017,08,23,10,50,19.70
2017,08,23,10,51,19.70
2017,08,23,10,52,19.70
2017,08,23,10,53,19.70
2017,08,23,10,54,19.70
2017,08,23,10,55,19.70
2017,08,23,10,56,19.80
2017,08,23,10,57,19.80
2017,08,23,10,58,19.70
2017,08,23,10,59,19.70
2017,08,23,11,00,19.60
2017,08,23,11,01,19.60
2017,08,23,11,02,19.50
2017,08,23,11,03,19.50
2017,08,23,11,04,19.60
2017,08,23,11,05,19.60
2017,08,23,11,06,19.60
2017,08,23,11,07,19.70
2017,08,23,11,08,19.80
2017,08,23,11,09,19.80
2017,08,23,11,10,19.80
2017,08,23,11,11,19.80
2017,08,23,11,12,19.80
2017,08,23,11,13,19.80
2017,08,23,11,14,19.80
2017,08,23,11,15,19.80
2017,08,23,11,16,19.80
2017,08,23,11,17,19.80
2017,08,23,11,18,19.90
2017,08,23,11,19,19.90
2017,08,23,11,20,19.90
2017,08,23,11,21,19.90
2017,08,23,11,22,20.00
2017,08,23,11,23,20.00
2017,08,23,11,24,20.10
2017,08,23,11,25,20.10
2017,08,23,11,26,20.10
2017,08,23,11,27,20.10
2017,08,23,11,28,20.10
2017,08,23,11,29,20.00
2017,08,23,11,30,20.00
2017,08,23,11,31,20.00
2017,08,23,11,32,20.10
2017,08,23,11,33,20.10
2017,08,23,11,34,20.10
2017,08,23,11,35,20.20
2017,08,23,11,36,20.20
2017,08,23,11,37,20.20
2017,08,23,11,38,20.30
2017,08,23,11,39,20.30
2017,08,23,11,40,20.40
2017,08,23,11,41,20.40
2017,08,23,11,42,20.40
2017,08,23,11,43,20.40
2017,08,23,11,44,20.30
2017,08,23,11,45,20.30
2017,08,23,11,46,20.30
2017,08,23,11,47,20.30
2017,08,23,11,48,20.30
2017,08,23,11,49,20.20
2017,08,23,11,50,20.20
2017,08,23,11,51,20.20
2017,08,23,11,52,20.20
2017,08,23,11,53,20.20
2017,08,23,11,54,20.20
2017,08,23,11,55,20.10
2017,08,23,11,56,20.10
2017,08,23,11,57,20.20
2017,08,23,11,58,20.20
2017,08,23,11,59,20.20
2017,08,23,12,00,20.20
2017,08,23,12,01,20.20
2017,08,23,12,02,20.20
2017,08,23,12,03,20.20
2017,08,23,12,04,20.20
2017,08,23,12,05,20.10
2017,08,23,12,06,20.00
2017,08,23,12,07,19.90
2017,08,23,12,08,19.80
2017,08,23,12,09,19.70
2017,08,23,12,10,19.70
2017,08,23,12,11,19.60
2017,08,23,12,12,19.60
2017,08,23,12,13,19.60
2017,08,23,12,14,19.50
2017,08,23,12,15,19.50
2017,08,23,12,16,19.40
2017,08,23,12,17,19.40
2017,08,23,12,18,19.40
2017,08,23,12,19,19.40
2017,08,23,12,20,19.50
2017,08,23,12,21,19.50
2017,08,23,12,22,19.50
2017,08,23,12,23,19.50
2017,08,23,12,24,19.50
2017,08,23,12,25,19.50
2017,08,23,12,26,19.50
2017,08,23,12,27,19.50
2017,08,23,12,28,19.50
2017,08,23,12,29,19.50
2017,08,23,12,30,19.50
2017,08,23,12,31,19.50
2017,08,23,12,32,19.50
2017,08,23,12,33,19.50
2017,08,23,12,34,19.50
2017,08,23,12,35,19.50
2017,08,23,12,36,19.50
2017,08,23,12,37,19.60
2017,08,23,12,38,19.60
2017,08,23,12,39,19.60
2017,08,23,12,40,19.60
2017,08,23,12,41,19.60
2017,08,23,12,42,19.60
2017,08,23,12,43,19.60
2017,08,23,12,44,19.60
2017,08,23,12,45,19.60
2017,08,23,12,46,19.60
2017,08,23,12,47,19.50
2017,08,23,12,48,19.50
2017,08,23,12,49,19.40
2017,08,23,12,50,19.40
2017,08,23,12,51,19.30
2017,08,23,12,52,19.30
2017,08,23,12,53,19.30
2017,08,23,12,54,19.30
2017,08,23,12,55,19.30
2017,08,23,12,56,19.30
2017,08,23,12,57,19.30
2017,08,23,12,58,19.30
2017,08,23,12,59,19.30
2017,08,23,13,00,19.30
2017,08,23,13,01,19.20
2017,08,23,13,02,19.30
2017,08,23,13,03,19.20
2017,08,23,13,04,19.20
2017,08,23,13,05,19.20
2017,08,23,13,06,19.20
2017,08,23,13,07,19.20
2017,08,23,13,08,19.20
2017,08,23,13,09,19.30
2017,08,23,13,10,19.30
2017,08,23,13,11,19.30
2017,08,23,13,12,19.30
2017,08,23,13,13,19.30
2017,08,23,13,14,19.30
2017,08,23,13,15,19.20
2017,08,23,13,16,19.20
2017,08,23,13,17,19.20
2017,08,23,13,18,19.30
2017,08,23,13,19,19.30
2017,08,23,13,20,19.40
2017,08,23,13,21,19.50
2017,08,23,13,22,19.60
2017,08,23,13,23,19.70
2017,08,23,13,24,19.70
2017,08,23,13,25,19.80
2017,08,23,13,26,19.80
2017,08,23,13,27,19.70
2017,08,23,13,28,19.70
2017,08,23,13,29,19.70
2017,08,23,13,30,19.70
2017,08,23,13,31,19.70
2017,08,23,13,32,19.80
2017,08,23,13,33,19.80
2017,08,23,13,34,19.90
2017,08,23,13,35,19.90
2017,08,23,13,36,20.00
2017,08,23,13,37,20.00
2017,08,23,13,38,20.00
2017,08,23,13,39,20.10
2017,08,23,13,40,20.10
2017,08,23,13,41,20.20
2017,08,23,13,42,20.20
2017,08,23,13,43,20.30
2017,08,23,13,44,20.30
2017,08,23,13,45,20.30
2017,08,23,13,46,20.30
2017,08,23,13,47,20.30
2017,08,23,13,48,20.40
2017,08,23,13,49,20.40
2017,08,23,13,50,20.50
2017,08,23,13,51,20.60
2017,08,23,13,52,20.60
2017,08,23,13,53,20.60
2017,08,23,13,54,20.60
2017,08,23,13,55,20.60
2017,08,23,13,56,20.60
2017,08,23,13,57,20.70
2017,08,23,13,58,20.70
2017,08,23,13,59,20.60
2017,08,23,14,00,20.60
2017,08,23,14,01,20.60
2017,08,23,14,02,20.50
2017,08,23,14,03,20.50
2017,08,23,14,04,20.40
2017,08,23,14,05,20.40
2017,08,23,14,06,20.40
2017,08,23,14,07,20.40
2017,08,23,14,08,20.50
2017,08,23,14,09,20.50
2017,08,23,14,10,20.50
2017,08,23,14,11,20.50
2017,08,23,14,12,20.50
2017,08,23,14,13,20.50
2017,08,23,14,14,20.60
2017,08,23,14,15,20.50
2017,08,23,14,16,20.50
2017,08,23,14,17,20.50
2017,08,23,14,18,20.60
2017,08,23,14,19,20.60
2017,08,23,14,20,20.60
2017,08,23,14,21,20.60
2017,08,23,14,22,20.70
2017,08,23,14,23,20.70
2017,08,23,14,24,20.70
2017,08,23,14,25,20.70
2017,08,23,14,26,20.70
2017,08,23,14,27,20.80
2017,08,23,14,28,20.80
2017,08,23,14,29,20.80
2017,08,23,14,30,20.90
2017,08,23,14,31,20.90
2017,08,23,14,32,20.80
2017,08,23,14,33,20.80
2017,08,23,14,34,20.80
2017,08,23,14,35,20.80
2017,08,23,14,36,20.80
2017,08,23,14,37,20.80
2017,08,23,14,38,20.90
2017,08,23,14,39,20.90
2017,08,23,14,40,20.90
2017,08,23,14,41,20.80
2017,08,23,14,42,20.80
2017,08,23,14,43,20.70
2017,08,23,14,44,20.70
2017,08,23,14,45,20.70
2017,08,23,14,46,20.70
2017,08,23,14,47,20.70
2017,08,23,14,48,20.80
2017,08,23,14,49,20.80
2017,08,23,14,50,20.80
2017,08,23,14,51,20.80
2017,08,23,14,52,20.80
2017,08,23,14,53,20.80
2017,08,23,14,54,20.80
2017,08,23,14,55,20.80
2017,08,23,14,56,20.80
2017,08,23,14,57,20.80
2017,08,23,14,58,20.90
2017,08,23,14,59,20.90
2017,08,23,15,00,20.90
2017,08,23,15,01,20.90
2017,08,23,15,02,20.90
2017,08,23,15,03,21.00
2017,08,23,15,04,21.00
2017,08,23,15,05,21.00
2017,08,23,15,06,21.00
2017,08,23,15,07,21.10
2017,08,23,15,08,21.10
2017,08,23,15,09,21.10
2017,08,23,15,10,21.10
2017,08,23,15,11,21.10
2017,08,23,15,12,21.10
2017,08,23,15,13,21.10
2017,08,23,15,14,21.20
2017,08,23,15,15,21.20
2017,08,23,15,16,21.30
2017,08,23,15,17,21.30
2017,08,23,15,18,21.40
2017,08,23,15,19,21.50
2017,08,23,15,20,21.50
2017,08,23,15,21,21.50
2017,08,23,15,22,21.50
2017,08,23,15,23,21.50
2017,08,23,15,24,21.50
2017,08,23,15,25,21.50
2017,08,23,15,26,21.60
2017,08,23,15,27,21.60
2017,08,23,15,28,21.70
2017,08,23,15,29,21.80
2017,08,23,15,30,21.90
2017,08,23,15,31,21.90
2017,08,23,15,32,22.00
2017,08,23,15,33,22.00
2017,08,23,15,34,22.00
2017,08,23,15,35,22.00
2017,08,23,15,36,22.00
2017,08,23,15,37,22.00
2017,08,23,15,38,22.10
2017,08,23,15,39,22.10
2017,08,23,15,40,22.20
2017,08,23,15,41,22.20
2017,08,23,15,42,22.20
2017,08,23,15,43,22.30
2017,08,23,15,44,22.30
2017,08,23,15,45,22.30
2017,08,23,15,46,22.30
2017,08,23,15,47,22.20
2017,08,23,15,48,22.10
2017,08,23,15,49,22.10
2017,08,23,15,50,22.10
2017,08,23,15,51,22.10
2017,08,23,15,52,22.00
2017,08,23,15,53,21.90
2017,08,23,15,54,21.90
2017,08,23,15,55,21.80
2017,08,23,15,56,21.80
2017,08,23,15,57,21.80
2017,08,23,15,58,21.70
2017,08,23,15,59,21.70
2017,08,23,16,00,21.70
2017,08,23,16,01,21.70
2017,08,23,16,02,21.70
2017,08,23,16,03,21.70
2017,08,23,16,04,21.70
2017,08,23,16,05,21.80
2017,08,23,16,06,21.80
2017,08,23,16,07,21.80
2017,08,23,16,08,21.80
2017,08,23,16,09,21.80
2017,08,23,16,10,21.80
2017,08,23,16,11,21.70
2017,08,23,16,12,21.60
2017,08,23,16,13,21.60
2017,08,23,16,14,21.60
2017,08,23,16,15,21.60
2017,08,23,16,16,21.60
2017,08,23,16,17,21.60
2017,08,23,16,18,21.70
2017,08,23,16,19,21.70
2017,08,23,16,20,21.80
2017,08,23,16,21,21.80
2017,08,23,16,22,21.80
2017,08,23,16,23,21.80
2017,08,23,16,24,21.80
2017,08,23,16,25,21.80
2017,08,23,16,26,21.80
2017,08,23,16,27,21.80
2017,08,23,16,28,21.70
2017,08,23,16,29,21.70
2017,08,23,16,30,21.70
2017,08,23,16,31,21.70
2017,08,23,16,32,21.70
2017,08,23,16,33,21.60
2017,08,23,16,34,21.60
2017,08,23,16,35,21.50
2017,08,23,16,36,21.50
2017,08,23,16,37,21.40
2017,08,23,16,38,21.40
2017,08,23,16,39,21.40
2017,08,23,16,40,21.40
2017,08,23,16,41,21.40
2017,08,23,16,42,21.50
2017,08,23,16,43,21.50
2017,08,23,16,44,21.40
2017,08,23,16,45,21.40
2017,08,23,16,46,21.40
2017,08,23,16,47,21.40
2017,08,23,16,48,21.30
2017,08,23,16,49,21.30
2017,08,23,16,50,21.20
2017,08,23,16,51,21.20
2017,08,23,16,52,21.20
2017,08,23,16,53,21.20
2017,08,23,16,54,21.30
2017,08,23,16,55,21.30
2017,08,23,16,56,21.40
2017,08,23,16,57,21.50
2017,08,23,16,58,21.50
2017,08,23,16,59,21.60
2017,08,23,17,00,21.70
2017,08,23,17,01,21.70
2017,08,23,17,02,21.80
2017,08,23,17,03,21.80
2017,08,23,17,04,21.80
2017,08,23,17,05,21.80
2017,08,23,17,06,21.70
2017,08,23,17,07,21.70
2017,08,23,17,08,21.70
2017,08,23,17,09,21.70
2017,08,23,17,10,21.80
2017,08,23,17,11,21.80
2017,08,23,17,12,21.80
2017,08,23,17,13,21.90
2017,08,23,17,14,21.90
2017,08,23,17,15,21.90
2017,08,23,17,16,21.80
2017,08,23,17,17,21.80
2017,08,23,17,18,21.80
2017,08,23,17,19,21.80